| time (UTC) | temp C | wind direction | speed KPH | gust KPH | rain 1hr cm | rain 24hr cm | rain mn cm | humidity % | barometer mb |
| 20260508014010 | 5 | 328 | 0.0 | 0.0 | 0.00 | 0.03 | 0.03 | 92 | 1014.4 |
| 20260508013506 | 6 | 328 | 0.0 | 0.0 | 0.00 | 0.03 | 0.03 | 92 | 1014.4 |
| 20260508013004 | 6 | 328 | 0.0 | 0.0 | 0.00 | 0.03 | 0.03 | 91 | 1014.3 |
| 20260508012501 | 6 | 328 | 0.0 | 0.0 | 0.00 | 0.03 | 0.03 | 90 | 1014.4 |
| 20260508011958 | 6 | 328 | 0.0 | 0.0 | 0.00 | 0.03 | 0.03 | 90 | 1014.3 |
| 20260508011456 | 6 | 328 | 0.0 | 0.0 | 0.00 | 0.03 | 0.03 | 90 | 1014.1 |
| 20260508010953 | 6 | 328 | 0.0 | 0.0 | 0.00 | 0.03 | 0.03 | 89 | 1014.1 |
| 20260508010450 | 7 | 328 | 0.0 | 0.0 | 0.00 | 0.03 | 0.03 | 88 | 1014.1 |
| 20260508005947 | 7 | 329 | 0.0 | 0.0 | 0.00 | 0.03 | 0.03 | 87 | 1014.0 |
| 20260508005444 | 7 | 329 | 0.0 | 0.0 | 0.00 | 0.03 | 0.03 | 85 | 1013.8 |
| 20260508004940 | 7 | 328 | 0.0 | 0.0 | 0.00 | 0.03 | 0.03 | 83 | 1014.1 |
| 20260508004437 | 7 | 328 | 0.0 | 0.0 | 0.00 | 0.03 | 0.03 | 81 | 1013.7 |
| 20260508003933 | 8 | 328 | 0.0 | 0.0 | 0.00 | 0.03 | 0.03 | 81 | 1014.0 |
| 20260508003430 | 8 | 329 | 0.0 | 0.0 | 0.00 | 0.03 | 0.03 | 79 | 1014.0 |
| 20260508002927 | 8 | 328 | 0.0 | 0.0 | 0.00 | 0.03 | 0.03 | 76 | 1013.8 |
| 20260508002424 | 9 | 328 | 0.0 | 0.0 | 0.00 | 0.03 | 0.03 | 77 | 1013.6 |
| 20260508001920 | 9 | 335 | 0.0 | 0.0 | 0.00 | 0.03 | 0.03 | 73 | 1013.5 |
| 20260508001417 | 10 | 303 | 0.0 | 0.0 | 0.00 | 0.03 | 0.03 | 68 | 1013.4 |
| 20260508000913 | 10 | 303 | 0.0 | 0.0 | 0.00 | 0.03 | 0.03 | 66 | 1013.4 |
| 20260508000409 | 10 | 304 | 0.0 | 3.2 | 0.00 | 0.03 | 0.03 | 64 | 1013.3 |
| 20260507235906 | 11 | 246 | 0.0 | 0.0 | 0.00 | 0.03 | 0.03 | 63 | 1013.2 |
| 20260507235403 | 11 | 79 | 4.8 | 4.8 | 0.00 | 0.03 | 0.03 | 61 | 1013.3 |
| 20260507234900 | 11 | 295 | 1.6 | 3.2 | 0.00 | 0.03 | 0.03 | 60 | 1013.3 |
| 20260507234357 | 11 | 298 | 6.4 | 11.3 | 0.00 | 0.03 | 0.03 | 58 | 1013.3 |
| 20260507233853 | 11 | 231 | 3.2 | 4.8 | 0.00 | 0.03 | 0.03 | 58 | 1013.3 |
| 20260507233351 | 12 | 319 | 8.0 | 12.9 | 0.00 | 0.03 | 0.03 | 59 | 1013.3 |
| 20260507232849 | 12 | 300 | 4.8 | 9.7 | 0.00 | 0.03 | 0.03 | 61 | 1013.1 |
| 20260507232345 | 12 | 302 | 1.6 | 6.4 | 0.00 | 0.03 | 0.03 | 60 | 1013.2 |
| 20260507231843 | 12 | 311 | 9.7 | 11.3 | 0.00 | 0.03 | 0.03 | 59 | 1013.1 |
| 20260507231339 | 12 | 287 | 0.0 | 6.4 | 0.00 | 0.03 | 0.03 | 61 | 1013.0 |
| 20260507230835 | 12 | 325 | 0.0 | 0.0 | 0.00 | 0.03 | 0.03 | 60 | 1013.1 |
| 20260507230333 | 12 | 327 | 0.0 | 3.2 | 0.00 | 0.03 | 0.03 | 59 | 1013.1 |
| 20260507225832 | 12 | 321 | 4.8 | 9.7 | 0.00 | 0.03 | 0.03 | 59 | 1013.2 |
| 20260507225329 | 12 | 309 | 3.2 | 6.4 | 0.00 | 0.03 | 0.03 | 59 | 1013.2 |
| 20260507224825 | 12 | 311 | 3.2 | 6.4 | 0.00 | 0.03 | 0.03 | 60 | 1012.8 |
| 20260507224322 | 12 | 317 | 6.4 | 9.7 | 0.00 | 0.03 | 0.03 | 60 | 1013.0 |
| 20260507223818 | 12 | 309 | 9.7 | 11.3 | 0.00 | 0.03 | 0.03 | 60 | 1013.1 |
| 20260507223314 | 12 | 288 | 3.2 | 4.8 | 0.00 | 0.03 | 0.03 | 62 | 1012.7 |
| 20260507222812 | 12 | 324 | 4.8 | 9.7 | 0.00 | 0.03 | 0.03 | 61 | 1012.8 |
| 20260507222308 | 12 | 318 | 3.2 | 4.8 | 0.00 | 0.03 | 0.03 | 60 | 1012.7 |
| 20260507221805 | 12 | 28 | 1.6 | 14.5 | 0.00 | 0.03 | 0.03 | 59 | 1012.8 |
| 20260507221301 | 13 | 320 | 4.8 | 6.4 | 0.00 | 0.03 | 0.03 | 60 | 1012.8 |
| 20260507220757 | 13 | 328 | 6.4 | 11.3 | 0.00 | 0.03 | 0.03 | 58 | 1012.8 |
| 20260507220256 | 13 | 295 | 3.2 | 9.7 | 0.00 | 0.03 | 0.03 | 58 | 1012.7 |
| 20260507215752 | 13 | 323 | 3.2 | 6.4 | 0.00 | 0.03 | 0.03 | 59 | 1012.6 |
| 20260507215249 | 13 | 297 | 8.0 | 12.9 | 0.00 | 0.03 | 0.03 | 60 | 1012.6 |
| 20260507214746 | 12 | 42 | 8.0 | 11.3 | 0.00 | 0.03 | 0.03 | 61 | 1012.3 |
| 20260507214243 | 12 | 295 | 4.8 | 6.4 | 0.00 | 0.03 | 0.03 | 62 | 1012.4 |
| 20260507213738 | 13 | 283 | 1.6 | 6.4 | 0.00 | 0.03 | 0.03 | 63 | 1012.6 |
| 20260507213236 | 13 | 62 | 4.8 | 6.4 | 0.00 | 0.03 | 0.03 | 60 | 1012.4 |
| 20260507212732 | 12 | 283 | 1.6 | 9.7 | 0.00 | 0.03 | 0.03 | 61 | 1012.2 |
| 20260507212229 | 13 | 301 | 1.6 | 4.8 | 0.00 | 0.03 | 0.03 | 61 | 1012.3 |
| 20260507211726 | 13 | 21 | 1.6 | 4.8 | 0.00 | 0.03 | 0.03 | 62 | 1012.2 |
| 20260507211221 | 13 | 286 | 6.4 | 9.7 | 0.00 | 0.03 | 0.03 | 60 | 1012.2 |
| 20260507210719 | 12 | 326 | 3.2 | 4.8 | 0.00 | 0.03 | 0.03 | 61 | 1012.2 |
| 20260507210216 | 13 | 320 | 0.0 | 1.6 | 0.00 | 0.03 | 0.03 | 61 | 1012.0 |
| 20260507205712 | 13 | 243 | 8.0 | 12.9 | 0.00 | 0.03 | 0.03 | 59 | 1012.0 |
| 20260507205209 | 13 | 314 | 3.2 | 4.8 | 0.00 | 0.03 | 0.03 | 60 | 1012.1 |
| 20260507204705 | 12 | 65 | 6.4 | 9.7 | 0.00 | 0.03 | 0.03 | 63 | 1012.3 |
| 20260507204203 | 12 | 315 | 3.2 | 4.8 | 0.00 | 0.03 | 0.03 | 65 | 1012.1 |
| 20260507203701 | 12 | 208 | 4.8 | 6.4 | 0.00 | 0.03 | 0.03 | 63 | 1012.1 |
| 20260507203158 | 13 | 31 | 1.6 | 4.8 | 0.00 | 0.03 | 0.03 | 61 | 1012.0 |
| 20260507202653 | 12 | 337 | 0.0 | 9.7 | 0.00 | 0.03 | 0.03 | 65 | 1012.2 |
| 20260507202150 | 12 | 319 | 3.2 | 9.7 | 0.00 | 0.03 | 0.03 | 63 | 1012.1 |
| 20260507201645 | 12 | 266 | 6.4 | 9.7 | 0.00 | 0.03 | 0.03 | 63 | 1012.1 |
| 20260507201142 | 13 | 262 | 4.8 | 12.9 | 0.00 | 0.03 | 0.03 | 62 | 1012.2 |
| 20260507200638 | 12 | 289 | 8.0 | 9.7 | 0.00 | 0.03 | 0.03 | 64 | 1012.1 |
| 20260507200134 | 12 | 319 | 9.7 | 11.3 | 0.00 | 0.03 | 0.03 | 66 | 1012.4 |
| 20260507195631 | 13 | 312 | 6.4 | 16.1 | 0.00 | 0.03 | 0.03 | 65 | 1012.3 |
| 20260507195128 | 13 | 289 | 3.2 | 9.7 | 0.00 | 0.03 | 0.03 | 64 | 1012.8 |
| 20260507194625 | 12 | 308 | 8.0 | 12.9 | 0.00 | 0.03 | 0.03 | 70 | 1012.8 |
| 20260507194120 | 12 | 314 | 6.4 | 14.5 | 0.00 | 0.03 | 0.03 | 66 | 1012.7 |
| 20260507193618 | 11 | 312 | 1.6 | 9.7 | 0.00 | 0.03 | 0.03 | 67 | 1012.6 |
| 20260507193115 | 13 | 3 | 8.0 | 11.3 | 0.00 | 0.03 | 0.03 | 65 | 1012.7 |
| 20260507192611 | 13 | 277 | 0.0 | 4.8 | 0.00 | 0.03 | 0.03 | 68 | 1012.6 |
| 20260507192108 | 12 | 236 | 1.6 | 6.4 | 0.00 | 0.03 | 0.03 | 67 | 1013.0 |
| 20260507191603 | 11 | 292 | 4.8 | 9.7 | 0.00 | 0.03 | 0.03 | 72 | 1012.8 |
| 20260507191100 | 11 | 290 | 6.4 | 6.4 | 0.00 | 0.03 | 0.03 | 71 | 1013.0 |
| 20260507190558 | 11 | 332 | 8.0 | 11.3 | 0.00 | 0.03 | 0.03 | 70 | 1013.0 |
| 20260507190056 | 12 | 183 | 0.0 | 4.8 | 0.00 | 0.03 | 0.03 | 70 | 1013.2 |
| 20260507185554 | 11 | 318 | 3.2 | 11.3 | 0.00 | 0.03 | 0.03 | 73 | 1013.2 |
| 20260507185050 | 11 | 343 | 1.6 | 4.8 | 0.00 | 0.03 | 0.03 | 74 | 1013.1 |
| 20260507184549 | 11 | 299 | 4.8 | 9.7 | 0.00 | 0.03 | 0.03 | 72 | 1013.2 |
| 20260507184046 | 11 | 92 | 3.2 | 6.4 | 0.00 | 0.03 | 0.03 | 75 | 1013.6 |
| 20260507183542 | 10 | 344 | 4.8 | 9.7 | 0.00 | 0.03 | 0.03 | 73 | 1013.4 |
| 20260507183039 | 11 | 320 | 9.7 | 14.5 | 0.00 | 0.03 | 0.03 | 70 | 1013.4 |
| 20260507182536 | 11 | 337 | 1.6 | 9.7 | 0.00 | 0.03 | 0.03 | 73 | 1013.4 |
| 20260507182031 | 11 | 296 | 4.8 | 6.4 | 0.00 | 0.03 | 0.03 | 70 | 1013.3 |
| 20260507181529 | 11 | 324 | 6.4 | 14.5 | 0.00 | 0.03 | 0.03 | 71 | 1013.2 |
| 20260507181025 | 11 | 86 | 4.8 | 12.9 | 0.00 | 0.03 | 0.03 | 72 | 1013.1 |
| 20260507180521 | 11 | 300 | 3.2 | 6.4 | 0.00 | 0.03 | 0.03 | 71 | 1013.0 |
| 20260507180018 | 11 | 328 | 0.0 | 1.6 | 0.00 | 0.03 | 0.03 | 69 | 1013.2 |
| 20260507175515 | 11 | 33 | 0.0 | 4.8 | 0.00 | 0.03 | 0.03 | 70 | 1013.1 |
| 20260507175012 | 11 | 322 | 1.6 | 3.2 | 0.00 | 0.03 | 0.03 | 68 | 1013.2 |
| 20260507174509 | 11 | 312 | 3.2 | 6.4 | 0.00 | 0.03 | 0.03 | 67 | 1013.1 |
| 20260507174007 | 11 | 147 | 0.0 | 6.4 | 0.00 | 0.03 | 0.03 | 67 | 1013.1 |
| 20260507173504 | 11 | 35 | 3.2 | 12.9 | 0.00 | 0.03 | 0.03 | 67 | 1013.3 |
| 20260507173001 | 11 | 308 | 6.4 | 6.4 | 0.00 | 0.03 | 0.03 | 67 | 1013.3 |
| 20260507172457 | 11 | 271 | 6.4 | 6.4 | 0.00 | 0.03 | 0.03 | 68 | 1013.2 |
| 20260507171954 | 12 | 17 | 1.6 | 3.2 | 0.00 | 0.03 | 0.03 | 66 | 1013.1 |
| 20260507171449 | 11 | 261 | 4.8 | 11.3 | 0.00 | 0.03 | 0.03 | 65 | 1013.2 |
| 20260507170947 | 11 | 56 | 3.2 | 6.4 | 0.00 | 0.03 | 0.03 | 67 | 1013.2 |
| 20260507170443 | 11 | 285 | 9.7 | 11.3 | 0.00 | 0.03 | 0.03 | 64 | 1013.3 |
| 20260507165940 | 11 | 302 | 6.4 | 11.3 | 0.00 | 0.03 | 0.03 | 66 | 1013.4 |
| 20260507165436 | 10 | 318 | 4.8 | 9.7 | 0.00 | 0.03 | 0.03 | 68 | 1013.3 |
| 20260507164931 | 10 | 320 | 6.4 | 6.4 | 0.00 | 0.03 | 0.03 | 67 | 1013.5 |
| 20260507164429 | 10 | 242 | 3.2 | 4.8 | 0.00 | 0.03 | 0.03 | 67 | 1013.6 |
| 20260507163926 | 10 | 208 | 0.0 | 4.8 | 0.00 | 0.03 | 0.03 | 73 | 1013.5 |
| 20260507163423 | 10 | 183 | 3.2 | 4.8 | 0.00 | 0.03 | 0.03 | 66 | 1013.7 |
| 20260507162920 | 10 | 266 | 4.8 | 11.3 | 0.00 | 0.03 | 0.03 | 67 | 1013.5 |
| 20260507162415 | 10 | 284 | 6.4 | 11.3 | 0.00 | 0.03 | 0.03 | 67 | 1013.5 |
| 20260507161913 | 10 | 280 | 9.7 | 12.9 | 0.00 | 0.03 | 0.03 | 67 | 1013.5 |
| 20260507161409 | 11 | 153 | 3.2 | 3.2 | 0.00 | 0.03 | 0.03 | 65 | 1013.7 |
| 20260507160906 | 10 | 37 | 4.8 | 4.8 | 0.00 | 0.03 | 0.03 | 64 | 1013.6 |
| 20260507160401 | 11 | 297 | 11.3 | 12.9 | 0.00 | 0.03 | 0.03 | 63 | 1013.6 |
| 20260507155858 | 11 | 72 | 3.2 | 6.4 | 0.00 | 0.03 | 0.03 | 65 | 1013.5 |
| 20260507155353 | 10 | 72 | 3.2 | 4.8 | 0.00 | 0.03 | 0.03 | 69 | 1013.6 |
| 20260507154850 | 10 | 219 | 0.0 | 4.8 | 0.00 | 0.03 | 0.03 | 68 | 1013.6 |
| 20260507154348 | 10 | 16 | 1.6 | 6.4 | 0.00 | 0.03 | 0.03 | 71 | 1013.8 |
| 20260507153845 | 9 | 323 | 3.2 | 9.7 | 0.00 | 0.03 | 0.03 | 69 | 1013.7 |
| 20260507153341 | 10 | 300 | 11.3 | 14.5 | 0.00 | 0.03 | 0.03 | 69 | 1013.8 |
| 20260507152838 | 10 | 291 | 1.6 | 3.2 | 0.00 | 0.03 | 0.03 | 75 | 1013.8 |
| 20260507152334 | 10 | 281 | 9.7 | 11.3 | 0.00 | 0.03 | 0.03 | 72 | 1013.7 |
| 20260507151831 | 10 | 99 | 1.6 | 4.8 | 0.00 | 0.03 | 0.03 | 74 | 1013.7 |
| 20260507151327 | 10 | 260 | 6.4 | 6.4 | 0.00 | 0.03 | 0.03 | 75 | 1013.7 |
| 20260507150824 | 10 | 67 | 1.6 | 1.6 | 0.00 | 0.03 | 0.03 | 75 | 1013.8 |
| 20260507150320 | 10 | 36 | 0.0 | 1.6 | 0.00 | 0.03 | 0.03 | 81 | 1013.8 |
| 20260507145816 | 9 | 272 | 1.6 | 4.8 | 0.00 | 0.03 | 0.03 | 77 | 1013.8 |
| 20260507145313 | 9 | 259 | 3.2 | 3.2 | 0.00 | 0.03 | 0.03 | 76 | 1014.1 |
| 20260507144810 | 9 | 279 | 0.0 | 1.6 | 0.00 | 0.03 | 0.03 | 80 | 1014.1 |
| 20260507144307 | 8 | 310 | 3.2 | 6.4 | 0.00 | 0.03 | 0.03 | 80 | 1014.0 |
| 20260507143804 | 9 | 297 | 1.6 | 6.4 | 0.00 | 0.03 | 0.03 | 80 | 1014.0 |
| 20260507143301 | 8 | 26 | 0.0 | 3.2 | 0.00 | 0.03 | 0.03 | 81 | 1013.8 |
| 20260507142757 | 8 | 308 | 1.6 | 4.8 | 0.00 | 0.03 | 0.03 | 81 | 1014.0 |
| 20260507142254 | 8 | 296 | 4.8 | 4.8 | 0.00 | 0.03 | 0.03 | 82 | 1013.8 |
| 20260507141750 | 9 | 292 | 3.2 | 3.2 | 0.00 | 0.03 | 0.03 | 84 | 1013.8 |
| 20260507141247 | 8 | 312 | 3.2 | 3.2 | 0.00 | 0.03 | 0.03 | 87 | 1014.1 |
| 20260507140743 | 8 | 291 | 3.2 | 4.8 | 0.00 | 0.03 | 0.03 | 86 | 1014.1 |
| 20260507140241 | 8 | 305 | 1.6 | 6.4 | 0.00 | 0.03 | 0.03 | 86 | 1014.1 |
| 20260507135738 | 8 | 271 | 0.0 | 0.0 | 0.00 | 0.03 | 0.03 | 89 | 1014.1 |
| 20260507135235 | 8 | 242 | 4.8 | 6.4 | 0.00 | 0.03 | 0.03 | 86 | 1014.2 |
| 20260507134731 | 8 | 310 | 0.0 | 0.0 | 0.00 | 0.03 | 0.03 | 89 | 1014.2 |
| 20260507134228 | 7 | 290 | 0.0 | 0.0 | 0.00 | 0.03 | 0.03 | 90 | 1014.1 |
| 20260507133724 | 8 | 310 | 3.2 | 3.2 | 0.00 | 0.03 | 0.03 | 89 | 1014.4 |
| 20260507133221 | 7 | 98 | 0.0 | 1.6 | 0.00 | 0.03 | 0.03 | 90 | 1014.4 |
| 20260507132718 | 7 | 69 | 1.6 | 3.2 | 0.00 | 0.03 | 0.03 | 89 | 1014.4 |
| 20260507132215 | 7 | 320 | 0.0 | 0.0 | 0.00 | 0.03 | 0.03 | 90 | 1014.5 |
| 20260507131711 | 7 | 281 | 0.0 | 0.0 | 0.00 | 0.03 | 0.03 | 90 | 1014.4 |
| 20260507131209 | 7 | 254 | 0.0 | 0.0 | 0.00 | 0.03 | 0.03 | 91 | 1014.4 |
| 20260507130705 | 7 | 33 | 0.0 | 0.0 | 0.00 | 0.03 | 0.03 | 91 | 1014.3 |
| 20260507130203 | 7 | 334 | 0.0 | 0.0 | 0.00 | 0.03 | 0.03 | 92 | 1014.3 |
| 20260507125702 | 7 | 281 | 0.0 | 0.0 | 0.00 | 0.03 | 0.03 | 93 | 1014.4 |
| 20260507125159 | 7 | 267 | 0.0 | 0.0 | 0.00 | 0.03 | 0.03 | 93 | 1014.4 |
| 20260507124655 | 7 | 298 | 0.0 | 0.0 | 0.00 | 0.03 | 0.03 | 93 | 1014.5 |
| 20260507124153 | 7 | 326 | 0.0 | 0.0 | 0.00 | 0.03 | 0.03 | 94 | 1014.5 |
| 20260507123651 | 7 | 272 | 0.0 | 0.0 | 0.00 | 0.03 | 0.03 | 95 | 1014.5 |
| 20260507123148 | 7 | 271 | 0.0 | 0.0 | 0.00 | 0.03 | 0.03 | 94 | 1014.8 |
| 20260507122643 | 7 | 289 | 0.0 | 0.0 | 0.00 | 0.03 | 0.03 | 95 | 1014.5 |
| 20260507122139 | 7 | 289 | 0.0 | 0.0 | 0.00 | 0.03 | 0.03 | 95 | 1014.5 |
| 20260507121635 | 7 | 288 | 0.0 | 0.0 | 0.00 | 0.03 | 0.03 | 95 | 1014.5 |
| 20260507121131 | 7 | 289 | 0.0 | 0.0 | 0.00 | 0.03 | 0.03 | 96 | 1014.3 |
| 20260507120627 | 7 | 289 | 0.0 | 0.0 | 0.00 | 0.03 | 0.03 | 95 | 1014.3 |
| 20260507120124 | 7 | 289 | 0.0 | 0.0 | 0.00 | 0.03 | 0.03 | 96 | 1014.3 |
| 20260507115621 | 6 | 289 | 0.0 | 3.2 | 0.00 | 0.03 | 0.03 | 95 | 1014.3 |
| 20260507115116 | 7 | 249 | 1.6 | 1.6 | 0.00 | 0.03 | 0.03 | 95 | 1014.1 |
| 20260507114613 | 6 | 308 | 0.0 | 0.0 | 0.00 | 0.03 | 0.03 | 96 | 1014.0 |
| 20260507114110 | 6 | 301 | 3.2 | 3.2 | 0.00 | 0.03 | 0.03 | 96 | 1014.1 |
| 20260507113608 | 6 | 339 | 0.0 | 0.0 | 0.00 | 0.03 | 0.03 | 96 | 1014.1 |
| 20260507113104 | 6 | 292 | 0.0 | 0.0 | 0.00 | 0.03 | 0.03 | 96 | 1014.2 |
| 20260507112602 | 6 | 293 | 0.0 | 0.0 | 0.00 | 0.03 | 0.03 | 96 | 1014.1 |
| 20260507112058 | 6 | 294 | 0.0 | 0.0 | 0.00 | 0.03 | 0.03 | 96 | 1014.1 |
| 20260507111555 | 6 | 296 | 1.6 | 1.6 | 0.00 | 0.03 | 0.03 | 96 | 1014.2 |
| 20260507111052 | 6 | 297 | 0.0 | 0.0 | 0.00 | 0.03 | 0.03 | 96 | 1013.8 |
| 20260507110548 | 6 | 6 | 0.0 | 0.0 | 0.00 | 0.03 | 0.03 | 96 | 1013.6 |
| 20260507110045 | 6 | 292 | 0.0 | 0.0 | 0.00 | 0.03 | 0.03 | 96 | 1013.7 |
| 20260507105542 | 6 | 85 | 0.0 | 0.0 | 0.00 | 0.03 | 0.03 | 96 | 1013.7 |
| 20260507105038 | 6 | 85 | 0.0 | 1.6 | 0.00 | 0.03 | 0.03 | 96 | 1013.8 |
| 20260507104536 | 6 | 347 | 0.0 | 0.0 | 0.00 | 0.03 | 0.03 | 97 | 1013.7 |
| 20260507104032 | 6 | 328 | 0.0 | 0.0 | 0.00 | 0.03 | 0.03 | 97 | 1013.6 |
| 20260507103528 | 6 | 27 | 0.0 | 0.0 | 0.00 | 0.03 | 0.03 | 96 | 1013.6 |
| 20260507103025 | 7 | 20 | 0.0 | 0.0 | 0.00 | 0.03 | 0.03 | 97 | 1013.6 |
| 20260507102521 | 7 | 21 | 0.0 | 0.0 | 0.00 | 0.03 | 0.03 | 97 | 1013.7 |
| 20260507102017 | 7 | 337 | 0.0 | 0.0 | 0.00 | 0.03 | 0.03 | 98 | 1013.5 |
| 20260507101513 | 7 | 347 | 0.0 | 1.6 | 0.00 | 0.03 | 0.03 | 99 | 1013.4 |
| 20260507101010 | 7 | 2 | 0.0 | 0.0 | 0.00 | 0.03 | 0.03 | 99 | 1013.5 |
| 20260507100507 | 7 | 17 | 3.2 | 3.2 | 0.00 | 0.03 | 0.03 | 99 | 1013.3 |
| 20260507100005 | 7 | 290 | 0.0 | 0.0 | 0.00 | 0.03 | 0.03 | 99 | 1013.0 |
| 20260507095503 | 7 | 286 | 1.6 | 3.2 | 0.00 | 0.03 | 0.03 | 99 | 1013.1 |
| 20260507094959 | 7 | 292 | 0.0 | 1.6 | 0.00 | 0.03 | 0.03 | 99 | 1013.2 |
| 20260507094455 | 7 | 265 | 0.0 | 0.0 | 0.00 | 0.03 | 0.03 | 99 | 1013.0 |
| 20260507093953 | 7 | 268 | 1.6 | 1.6 | 0.00 | 0.03 | 0.03 | 99 | 1013.3 |
| 20260507093450 | 7 | 139 | 1.6 | 4.8 | 0.00 | 0.03 | 0.03 | 99 | 1013.4 |
| 20260507092948 | 7 | 313 | 0.0 | 0.0 | 0.00 | 0.03 | 0.03 | 99 | 1013.3 |
| 20260507092444 | 7 | 301 | 6.4 | 6.4 | 0.00 | 0.03 | 0.03 | 99 | 1013.5 |
| 20260507091941 | 7 | 294 | 3.2 | 4.8 | 0.00 | 0.03 | 0.03 | 99 | 1013.4 |
| 20260507091437 | 7 | 303 | 3.2 | 3.2 | 0.00 | 0.03 | 0.03 | 99 | 1013.4 |
| 20260507090933 | 8 | 235 | 0.0 | 0.0 | 0.00 | 0.03 | 0.03 | 99 | 1013.3 |
| 20260507090430 | 7 | 234 | 0.0 | 0.0 | 0.00 | 0.03 | 0.03 | 99 | 1013.3 |
| 20260507085926 | 8 | 191 | 0.0 | 0.0 | 0.00 | 0.03 | 0.03 | 99 | 1013.2 |
| 20260507085424 | 8 | 284 | 0.0 | 0.0 | 0.00 | 0.03 | 0.03 | 99 | 1013.2 |
| 20260507084921 | 8 | 284 | 0.0 | 0.0 | 0.00 | 0.03 | 0.03 | 99 | 1013.2 |
| 20260507084417 | 8 | 281 | 0.0 | 0.0 | 0.00 | 0.03 | 0.03 | 99 | 1013.3 |
| 20260507083915 | 8 | 285 | 0.0 | 1.6 | 0.00 | 0.03 | 0.03 | 99 | 1013.5 |
| 20260507083411 | 8 | 296 | 0.0 | 0.0 | 0.00 | 0.03 | 0.03 | 99 | 1013.4 |
| 20260507082907 | 8 | 91 | 0.0 | 3.2 | 0.00 | 0.03 | 0.03 | 99 | 1013.2 |
| 20260507082403 | 8 | 294 | 4.8 | 4.8 | 0.00 | 0.03 | 0.03 | 99 | 1013.4 |
| 20260507081900 | 8 | 25 | 0.0 | 1.6 | 0.00 | 0.03 | 0.03 | 99 | 1013.2 |
| 20260507081356 | 8 | 270 | 0.0 | 0.0 | 0.00 | 0.03 | 0.03 | 99 | 1013.3 |
| 20260507080853 | 8 | 259 | 0.0 | 0.0 | 0.00 | 0.03 | 0.03 | 99 | 1013.5 |
| 20260507080349 | 8 | 262 | 0.0 | 0.0 | 0.00 | 0.03 | 0.03 | 99 | 1013.5 |
| 20260507075844 | 8 | 281 | 0.0 | 0.0 | 0.00 | 0.03 | 0.03 | 99 | 1013.4 |
| 20260507075341 | 8 | 281 | 0.0 | 0.0 | 0.00 | 0.03 | 0.03 | 99 | 1013.4 |
| 20260507074837 | 8 | 280 | 0.0 | 0.0 | 0.00 | 0.03 | 0.03 | 99 | 1013.5 |
| 20260507074335 | 8 | 184 | 1.6 | 4.8 | 0.00 | 0.03 | 0.03 | 99 | 1013.3 |
| 20260507073832 | 8 | 61 | 0.0 | 0.0 | 0.00 | 0.03 | 0.03 | 99 | 1013.3 |
| 20260507073329 | 8 | 63 | 0.0 | 0.0 | 0.00 | 0.03 | 0.03 | 99 | 1013.3 |
| 20260507072826 | 8 | 63 | 0.0 | 0.0 | 0.00 | 0.03 | 0.03 | 99 | 1013.3 |
| 20260507072323 | 8 | 63 | 0.0 | 0.0 | 0.18 | 0.03 | 0.03 | 99 | 1013.1 |
| 20260507071821 | 8 | 58 | 0.0 | 0.0 | 0.00 | 0.00 | 0.00 | 99 | 1013.3 |
| 20260507071317 | 8 | 52 | 0.0 | 3.2 | 0.00 | 0.00 | 0.00 | 99 | 1013.2 |
| 20260507070814 | 8 | 4 | 0.0 | 0.0 | 0.00 | 0.00 | 0.00 | 99 | 1013.5 |
| 20260507070311 | 8 | 12 | 0.0 | 0.0 | 0.00 | 0.00 | 0.00 | 99 | 1013.5 |
| 20260507065808 | 8 | 140 | 1.6 | 1.6 | 0.00 | 0.00 | 0.00 | 99 | 1013.4 |
| 20260507065306 | 8 | 271 | 0.0 | 9.7 | 0.00 | 0.00 | 0.00 | 99 | 1013.5 |
| 20260507064801 | 8 | 284 | 0.0 | 0.0 | 0.00 | 0.00 | 0.00 | 99 | 1013.7 |
| 20260507064300 | 8 | 296 | 0.0 | 0.0 | 0.00 | 0.00 | 0.00 | 99 | 1013.6 |
| 20260507063758 | 8 | 14 | 0.0 | 3.2 | 0.00 | 0.00 | 0.00 | 99 | 1013.6 |
| 20260507063254 | 8 | 67 | 0.0 | 3.2 | 0.00 | 0.00 | 0.00 | 99 | 1013.6 |
| 20260507062751 | 9 | 11 | 0.0 | 0.0 | 0.00 | 0.00 | 0.00 | 99 | 1013.8 |
| 20260507062248 | 9 | 299 | 0.0 | 0.0 | 0.00 | 0.00 | 0.00 | 99 | 1013.8 |
| 20260507061746 | 8 | 267 | 0.0 | 0.0 | 0.00 | 0.00 | 0.00 | 99 | 1013.8 |
| 20260507061244 | 8 | 301 | 0.0 | 0.0 | 0.00 | 0.00 | 0.00 | 99 | 1013.8 |
| 20260507060742 | 9 | 278 | 0.0 | 0.0 | 0.00 | 0.00 | 0.00 | 99 | 1013.7 |
| 20260507060238 | 9 | 15 | 0.0 | 0.0 | 0.00 | 0.00 | 0.00 | 99 | 1013.6 |
| 20260507055734 | 9 | 104 | 0.0 | 0.0 | 0.00 | 0.00 | 0.00 | 99 | 1013.2 |
| 20260507055230 | 9 | 276 | 0.0 | 0.0 | 0.00 | 0.00 | 0.00 | 99 | 1013.7 |
| 20260507054726 | 9 | 72 | 0.0 | 0.0 | 0.00 | 0.00 | 0.00 | 99 | 1013.2 |
| 20260507054224 | 9 | 336 | 0.0 | 3.2 | 0.00 | 0.00 | 0.00 | 99 | 1013.8 |
| 20260507053721 | 9 | 296 | 4.8 | 9.7 | 0.00 | 0.00 | 0.00 | 99 | 1014.0 |
| 20260507053219 | 9 | 233 | 1.6 | 1.6 | 0.00 | 0.00 | 0.00 | 99 | 1013.8 |
| 20260507052718 | 9 | 303 | 0.0 | 3.2 | 0.00 | 0.00 | 0.00 | 99 | 1013.8 |
| 20260507052213 | 9 | 294 | 0.0 | 1.6 | 0.00 | 0.00 | 0.00 | 99 | 1013.8 |
| 20260507051711 | 9 | 307 | 1.6 | 4.8 | 0.00 | 0.00 | 0.00 | 99 | 1014.1 |
| 20260507051208 | 9 | 320 | 0.0 | 0.0 | 0.00 | 0.00 | 0.00 | 99 | 1014.1 |
| 20260507050704 | 9 | 302 | 1.6 | 3.2 | 0.00 | 0.00 | 0.00 | 99 | 1014.3 |
| 20260507050201 | 9 | 318 | 4.8 | 9.7 | 0.00 | 0.00 | 0.00 | 99 | 1014.0 |
| 20260507045658 | 9 | 307 | 0.0 | 1.6 | 0.00 | 0.00 | 0.00 | 99 | 1013.8 |
| 20260507045155 | 9 | 274 | 0.0 | 0.0 | 0.00 | 0.00 | 0.00 | 99 | 1014.1 |
| 20260507044652 | 9 | 313 | 1.6 | 6.4 | 0.00 | 0.00 | 0.00 | 99 | 1014.1 |
| 20260507044148 | 9 | 278 | 0.0 | 4.8 | 0.00 | 0.00 | 0.00 | 99 | 1014.2 |
| 20260507043644 | 10 | 310 | 6.4 | 11.3 | 0.00 | 0.00 | 0.00 | 99 | 1014.3 |
| 20260507043142 | 10 | 290 | 4.8 | 6.4 | 0.00 | 0.00 | 0.00 | 99 | 1014.1 |
| 20260507042638 | 10 | 301 | 6.4 | 6.4 | 0.00 | 0.00 | 0.00 | 99 | 1014.1 |
| 20260507042132 | 10 | 293 | 1.6 | 6.4 | 0.00 | 0.00 | 0.00 | 99 | 1014.0 |
| 20260507041630 | 10 | 327 | 3.2 | 11.3 | 0.00 | 0.00 | 0.00 | 99 | 1014.1 |
| 20260507041126 | 10 | 300 | 3.2 | 11.3 | 0.00 | 0.00 | 0.00 | 99 | 1014.0 |
| 20260507040624 | 10 | 308 | 6.4 | 9.7 | 0.00 | 0.00 | 0.00 | 99 | 1013.7 |
| 20260507040120 | 10 | 322 | 4.8 | 6.4 | 0.00 | 1.60 | 1.60 | 99 | 1013.7 |
| 20260507035616 | 10 | 42 | 0.0 | 4.8 | 0.00 | 1.60 | 1.60 | 99 | 1013.6 |
| 20260507035112 | 10 | 307 | 1.6 | 4.8 | 0.00 | 1.60 | 1.60 | 99 | 1013.6 |
| 20260507034609 | 10 | 308 | 4.8 | 6.4 | 0.00 | 1.60 | 1.60 | 99 | 1013.2 |
| 20260507034108 | 10 | 321 | 3.2 | 4.8 | 0.00 | 1.60 | 1.60 | 99 | 1013.8 |
| 20260507033606 | 10 | 297 | 0.0 | 3.2 | 0.00 | 1.60 | 1.60 | 99 | 1013.4 |
| 20260507033102 | 10 | 331 | 3.2 | 3.2 | 0.00 | 1.60 | 1.60 | 99 | 1013.4 |
| 20260507032559 | 10 | 325 | 0.0 | 1.6 | 0.00 | 1.60 | 1.60 | 99 | 1013.2 |
| 20260507032055 | 10 | 317 | 1.6 | 4.8 | 0.00 | 1.60 | 1.60 | 99 | 1012.4 |
| 20260507031552 | 10 | 229 | 0.0 | 1.6 | 0.00 | 1.60 | 1.60 | 99 | 1012.1 |
| 20260507031049 | 10 | 139 | 0.0 | 3.2 | 0.00 | 1.60 | 1.60 | 99 | 1012.2 |
| 20260507030545 | 10 | 146 | 0.0 | 1.6 | 0.00 | 1.60 | 1.60 | 99 | 1012.7 |
| 20260507030043 | 10 | 130 | 4.8 | 9.7 | 0.00 | 1.60 | 1.60 | 99 | 1013.2 |
| 20260507025541 | 10 | 130 | 4.8 | 4.8 | 0.00 | 1.60 | 1.60 | 99 | 1013.8 |
| 20260507025038 | 11 | 25 | 0.0 | 0.0 | 0.00 | 1.60 | 1.60 | 99 | 1014.3 |
| 20260507024535 | 11 | 302 | 0.0 | 0.0 | 0.00 | 1.60 | 1.60 | 99 | 1014.8 |
| 20260507024032 | 11 | 286 | 0.0 | 0.0 | 0.00 | 1.60 | 1.60 | 99 | 1014.3 |
| 20260507023527 | 11 | 261 | 0.0 | 0.0 | 0.18 | 1.60 | 1.60 | 99 | 1014.1 |
| 20260507023026 | 11 | 253 | 0.0 | 0.0 | 0.18 | 1.60 | 1.60 | 99 | 1014.3 |
| 20260507022522 | 11 | 32 | 1.6 | 3.2 | 0.00 | 1.57 | 1.57 | 99 | 1014.4 |
| 20260507022017 | 11 | 73 | 0.0 | 1.6 | 0.00 | 1.57 | 1.57 | 99 | 1014.8 |
| 20260507021514 | 11 | 41 | 11.3 | 16.1 | 0.00 | 1.57 | 1.57 | 99 | 1015.0 |
| 20260507021010 | 11 | 316 | 9.7 | 11.3 | 0.13 | 1.57 | 1.57 | 99 | 1015.2 |
| 20260507020508 | 11 | 322 | 4.8 | 4.8 | 0.13 | 1.57 | 1.57 | 99 | 1014.5 |
| 20260507020004 | 11 | 135 | 3.2 | 4.8 | 0.00 | 1.55 | 1.55 | 99 | 1013.7 |
| 20260507015503 | 11 | 9 | 0.0 | 0.0 | 0.18 | 1.55 | 1.55 | 99 | 1014.1 |
| 20260507015000 | 11 | 320 | 1.6 | 1.6 | 0.00 | 1.52 | 1.52 | 99 | 1014.3 |
| 20260507014457 | 11 | 315 | 3.2 | 3.2 | 0.00 | 1.52 | 1.52 | 99 | 1013.6 |